Theta_e
305 304 305 305 306 306 307 307 307 307 307 306 306 308 309 308 308 308 310 316 318 317 319 326 329 334 339 343 348 352 356 358 356 358 359 355 355 355 354 350 351 351 345 344 344
308 306 305 304 305 305 305 306 306 306 307 306 306 308 308 308 307 310 315 316 316 315 324 331 336 339 338 342 346 353 355 356 352 354 356 353 351 354 354 352 352 344 344 344 344
312 310 307 305 305 305 306 306 305 305 306 306 307 309 307 307 314 320 324 315 314 313 330 335 337 336 340 341 344 352 356 353 353 352 352 353 355 354 354 354 350 345 344 344 343
312 313 310 307 306 307 307 307 306 306 306 306 308 308 307 308 334 330 324 318 312 315 333 335 333 334 341 342 342 351 350 351 352 352 352 353 352 354 353 353 346 344 344 344 343
312 313 313 310 307 307 308 308 306 306 306 306 309 308 307 321 322 329 323 315 312 318 334 333 330 332 336 334 336 348 348 351 349 351 351 351 350 353 354 352 348 345 344 344 342
314 314 314 313 308 306 308 307 306 306 306 307 310 307 308 325 326 325 319 317 313 324 335 331 329 330 331 331 334 344 346 348 351 350 349 348 349 348 353 352 352 346 344 343 342
314 314 314 314 309 307 307 307 306 306 306 310 309 308 322 323 327 327 323 317 318 328 332 330 329 329 328 331 333 344 346 345 350 349 350 348 352 352 353 353 352 347 344 342 341
313 314 314 314 308 308 311 313 312 308 310 310 309 311 325 321 324 327 324 320 323 329 329 327 327 326 327 330 336 342 346 348 351 351 350 349 356 350 352 353 351 345 343 342 341
315 314 314 314 308 312 315 313 313 313 311 310 312 318 327 323 325 326 324 323 324 327 326 325 325 325 327 330 337 344 347 346 347 349 351 352 357 349 349 353 348 345 343 342 342
315 314 314 309 311 315 317 312 311 311 312 318 328 326 327 325 324 326 325 324 325 326 325 324 324 325 327 332 337 342 345 346 347 350 352 354 354 350 348 352 348 345 343 343 343
314 314 313 309 315 315 315 323 323 326 324 326 326 327 327 324 325 325 324 323 323 325 326 325 324 325 327 330 336 339 342 345 345 353 353 352 353 349 348 354 347 345 344 344 345
312 312 308 314 315 315 317 324 320 321 322 323 323 323 324 324 325 324 325 324 322 324 325 325 324 326 327 330 331 334 340 344 351 351 351 352 351 349 349 350 351 346 345 346 346
311 309 309 314 314 315 319 321 318 319 320 322 321 323 324 325 326 324 324 326 326 324 324 327 325 326 327 329 331 333 338 340 356 347 344 348 351 346 346 343 348 348 346 347 347
315 311 312 315 317 320 321 319 318 319 323 322 320 321 322 322 323 324 323 325 325 326 324 326 327 326 327 329 332 335 340 340 350 347 353 349 359 351 351 352 351 351 351 349 348
316 314 313 316 318 321 322 318 319 319 327 321 321 321 321 322 323 325 323 325 328 324 325 325 327 326 328 330 332 336 337 339 338 341 348 349 351 353 350 352 353 352 353 352 349
317 316 315 318 319 320 319 319 318 321 326 321 321 321 322 322 323 325 324 325 327 329 325 327 326 328 329 332 334 335 336 338 337 336 345 347 348 356 353 353 353 353 353 352 351
317 317 317 317 322 320 319 320 321 322 324 322 321 320 321 321 323 324 325 326 328 330 329 327 327 328 329 332 334 333 337 340 339 338 337 345 347 355 350 346 347 350 349 350 352
317 317 319 321 321 321 321 325 329 327 323 323 321 320 319 321 323 323 325 325 326 329 329 327 331 329 331 333 334 334 337 339 339 337 335 345 355 353 348 344 344 345 346 349 352
318 319 322 323 322 321 322 329 327 325 325 321 321 320 319 325 325 323 324 325 325 328 330 329 330 331 331 332 334 334 336 335 335 334 334 350 352 348 345 344 341 341 342 345 349
317 320 324 321 320 321 325 322 327 322 321 321 321 321 323 325 325 324 324 326 326 326 326 328 331 330 328 329 329 331 332 334 335 337 337 352 352 354 348 344 340 338 338 340 343
314 322 323 320 319 320 327 324 322 320 320 322 324 322 322 322 322 322 324 324 324 324 325 326 329 328 327 327 328 330 330 332 332 334 335 352 353 345 346 342 339 336 334 336 339
319 323 323 319 322 323 325 322 319 321 320 321 323 324 322 322 322 322 323 323 321 322 324 326 326 329 327 326 326 327 329 331 334 336 335 347 350 341 341 339 337 334 332 333 336
323 323 319 319 324 323 321 320 320 320 321 321 322 321 320 322 322 322 322 320 319 321 322 324 326 327 327 326 326 327 328 329 330 332 336 341 349 339 338 337 336 335 332 331 334
322 323 320 318 320 321 320 320 319 317 319 320 322 321 321 322 321 321 321 320 319 319 315 321 322 325 327 327 326 326 327 328 329 331 331 345 344 339 337 336 334 335 333 332 331
322 321 321 323 321 320 320 319 318 318 316 318 320 321 321 322 322 322 321 320 319 316 320 321 322 322 324 325 323 325 325 326 327 328 333 343 343 339 336 336 334 334 333 332 331
322 322 316 319 319 321 315 320 318 317 319 318 318 319 320 322 323 324 323 322 321 321 321 322 323 322 324 323 322 322 324 323 323 324 339 340 341 337 335 334 333 332 331 331 330
320 317 320 316 319 319 321 319 318 317 317 317 318 318 318 321 320 320 321 321 322 322 322 322 323 323 323 322 322 322 322 322 322 323 328 340 338 335 335 333 332 331 330 329 328
Wind_Speed
14 14 14 13 14 14 14 12 10 11 12 12 10 10 11 11 11 12 15 12 12 8 15 10 14 15 16 16 19 17 1 3 3 8 13 7 4 4 6 12 10 5 31 34 30
13 13 13 13 13 13 13 13 12 9 11 11 10 9 10 11 13 18 15 14 18 12 17 16 17 17 17 19 20 6 4 5 6 8 16 14 13 7 4 11 11 28 31 32 29
14 13 12 11 12 12 13 13 12 10 10 9 9 9 7 8 10 9 14 12 15 15 16 15 13 16 19 19 17 13 5 2 8 13 24 20 15 6 6 4 18 32 35 32 28
16 14 12 11 10 10 13 13 12 11 9 7 8 7 5 4 2 1 4 15 13 15 17 16 18 18 17 17 17 5 9 5 18 13 20 17 16 13 9 2 27 30 31 31 27
16 16 14 12 12 11 12 13 12 9 8 6 6 5 5 7 15 6 7 11 16 20 17 18 18 17 16 16 13 6 4 17 16 20 18 15 14 13 7 8 14 27 28 28 25
15 14 14 13 12 12 12 13 11 7 6 5 5 5 5 10 2 8 6 12 18 21 16 18 15 16 19 18 14 8 18 14 21 18 20 17 11 6 3 8 18 25 28 26 24
15 15 13 12 12 11 12 10 8 5 4 4 5 5 8 15 2 3 9 14 17 18 16 16 15 15 8 16 15 9 12 13 23 18 21 22 11 7 7 8 27 30 29 26 24
15 14 12 12 10 9 8 7 5 3 4 4 5 5 9 8 7 8 9 13 16 14 14 13 12 13 18 14 13 18 13 10 25 21 16 15 11 2 9 12 27 32 30 27 24
15 13 11 9 7 6 4 4 1 3 3 5 5 6 10 8 11 11 13 15 16 14 12 11 9 15 16 15 12 13 15 14 15 20 17 1 13 8 12 15 24 32 29 27 24
14 11 9 7 3 3 3 4 6 7 5 6 2 8 16 11 14 14 12 13 15 14 12 9 10 13 15 13 14 18 21 17 16 17 17 15 12 12 17 12 21 30 29 27 24
12 9 5 4 2 3 2 5 3 3 13 12 6 12 8 14 15 14 15 15 15 15 13 17 11 15 19 20 20 21 18 11 7 23 18 13 15 15 16 16 18 26 28 28 27
12 8 3 3 2 2 4 6 6 7 7 20 8 14 8 20 15 15 15 15 17 15 17 11 16 17 20 18 23 23 13 10 13 23 20 16 11 8 10 12 19 25 26 26 26
13 7 3 5 1 3 5 10 6 6 8 17 14 13 7 11 15 19 20 21 16 17 18 17 14 19 17 19 21 21 17 12 12 17 19 16 6 10 8 22 29 21 27 25 25
11 6 3 4 5 8 10 5 6 5 6 15 13 16 15 16 17 19 20 21 11 17 18 19 17 18 17 17 18 17 17 19 22 18 8 13 5 15 19 26 17 26 23 25 23
9 6 2 4 4 9 6 7 8 4 5 12 14 8 12 19 15 16 19 23 17 15 15 18 15 16 17 18 13 18 11 14 19 13 20 19 6 5 3 13 19 28 23 22 27
6 7 3 3 7 4 8 7 5 7 1 6 10 9 14 20 11 20 17 23 17 15 19 15 19 11 11 14 12 21 12 9 6 9 11 21 14 8 3 7 9 25 24 22 22
8 8 7 7 7 6 6 7 6 6 2 6 12 13 15 16 13 14 16 15 13 11 16 17 17 12 15 17 17 15 13 8 10 9 12 20 11 6 14 10 11 14 11 5 12
11 12 11 6 7 7 6 10 6 18 10 13 15 16 14 17 13 12 13 14 19 17 11 13 14 17 13 14 10 13 18 10 14 12 12 18 11 10 19 17 16 8 6 6 12
13 10 10 5 4 5 10 6 5 10 21 5 7 9 12 13 13 14 20 11 18 9 4 14 15 15 6 16 1 16 17 18 15 20 13 9 14 13 18 16 15 8 8 9 8
14 14 21 5 6 6 5 4 14 9 6 8 10 6 6 14 19 9 8 6 11 5 2 13 11 15 10 6 9 14 9 17 14 14 14 11 13 13 16 14 12 12 12 12 13
17 10 12 3 5 10 5 7 3 3 6 7 12 7 6 10 12 5 3 7 4 9 6 16 9 9 15 11 15 11 11 12 17 15 10 11 4 6 17 13 14 14 11 9 11
14 12 5 4 11 10 10 3 2 5 1 4 7 22 7 3 7 3 8 8 3 7 9 12 4 11 13 13 19 16 13 16 12 17 10 7 3 5 11 16 16 15 12 10 10
8 12 2 6 9 6 7 6 8 6 2 3 2 4 7 6 3 6 7 3 3 3 6 10 9 3 8 7 7 8 13 15 12 15 15 5 6 7 16 16 14 16 14 14 12
8 4 7 4 6 7 4 3 5 1 3 5 6 7 5 9 8 5 5 2 2 6 5 7 12 8 5 12 9 17 15 13 13 11 13 8 19 15 15 13 14 16 15 16 16
7 6 7 4 5 7 3 5 1 2 2 4 3 9 10 3 6 5 8 5 4 3 3 4 9 11 4 7 11 14 20 17 10 15 11 17 19 15 13 13 15 16 16 16 16
11 9 1 6 1 7 5 3 2 4 6 2 8 2 8 10 5 8 11 6 6 6 5 2 8 10 10 6 5 10 6 3 5 11 14 18 18 17 22 20 20 16 16 16 15
7 4 9 6 5 6 7 6 5 2 3 6 5 6 4 12 14 15 4 9 9 2 3 4 7 10 11 13 12 10 10 9 8 11 4 14 15 19 17 19 17 15 15 14 13
Wind_Direction
337 330 323 318 313 310 307 301 296 294 291 288 287 291 289 276 261 254 246 222 250 240 194 198 196 205 218 228 232 224 321 333 177 152 141 150 131 51 74 133 119 198 146 143 146
339 335 331 325 318 313 310 307 301 292 288 287 287 290 287 283 273 254 239 225 230 227 189 188 201 203 223 230 237 110 352 267 28 133 149 151 138 138 137 126 126 127 135 144 149
333 331 329 326 321 316 312 310 306 294 283 283 284 288 284 282 296 257 237 234 222 208 191 196 201 207 229 229 228 123 194 238 63 117 147 154 126 113 81 141 135 137 144 151 151
326 325 322 319 315 311 312 310 307 297 280 275 281 284 265 237 311 263 199 212 208 192 201 212 209 211 232 233 243 83 214 115 97 111 166 135 121 97 86 97 132 141 150 151 157
323 321 319 317 312 309 310 309 304 293 274 265 270 271 243 245 262 269 241 200 189 182 201 206 213 211 228 242 233 164 222 125 122 134 120 125 123 116 147 165 138 148 156 156 159
322 318 315 316 315 313 315 312 301 282 255 248 252 243 237 252 267 273 230 193 184 182 201 204 216 215 234 262 235 216 236 134 124 140 137 130 127 117 195 177 174 165 163 161 161
324 320 317 315 317 319 320 317 305 269 234 226 236 226 251 227 323 230 186 183 181 182 201 205 213 224 248 265 240 257 225 162 137 161 139 130 138 139 166 222 164 170 165 164 163
325 320 318 313 318 323 326 324 307 258 204 200 207 195 249 207 228 190 186 180 183 198 209 202 223 249 249 262 231 236 240 211 150 150 151 166 149 158 179 233 165 161 166 164 166
327 321 315 309 321 334 343 15 360 188 177 182 170 197 248 201 196 190 178 184 185 193 208 207 218 232 236 254 230 220 221 207 140 173 129 303 113 178 228 246 170 166 166 164 165
331 328 321 315 338 7 86 79 106 129 157 177 231 219 232 203 181 180 186 184 184 192 196 200 209 229 234 220 217 204 234 165 180 148 126 116 135 172 216 243 185 169 168 166 163
351 344 346 337 346 154 208 318 240 198 205 219 245 227 140 179 170 180 175 183 194 186 203 199 215 211 212 220 241 219 213 195 308 132 112 140 152 182 207 239 183 172 173 167 165
360 356 18 102 46 179 248 247 7 327 259 233 237 240 161 160 166 187 182 187 199 208 212 181 223 225 230 221 236 255 276 149 125 103 109 132 133 163 214 229 221 181 178 167 167
4 7 50 117 89 296 335 306 310 311 265 204 212 221 184 190 199 188 190 204 193 217 209 224 216 234 219 236 226 240 228 150 169 110 118 120 123 146 219 235 243 192 184 165 161
4 14 117 149 281 257 257 299 313 303 272 156 193 214 197 206 233 188 198 206 194 218 222 232 242 197 232 241 224 242 232 146 166 134 154 177 146 189 192 209 235 160 200 180 170
354 4 167 246 306 304 313 304 302 261 273 142 175 161 185 204 196 176 198 220 247 221 222 219 230 211 222 225 213 242 240 178 212 193 124 194 154 208 246 291 181 186 171 183 180
333 340 317 301 285 306 319 297 256 237 288 135 136 193 189 221 173 164 193 224 259 245 234 242 218 228 219 232 227 238 299 183 253 213 188 195 208 165 122 318 139 159 168 178 181
317 315 310 278 277 330 315 263 225 263 277 140 179 189 213 204 181 158 195 202 227 221 216 225 234 210 217 217 230 218 247 205 209 226 248 166 207 141 153 99 34 55 56 61 201
304 305 292 308 275 306 291 261 29 295 345 202 227 183 207 213 180 172 201 214 228 229 199 210 216 192 207 241 224 202 235 208 203 223 228 168 136 126 123 109 91 32 58 40 148
295 289 269 292 298 285 268 72 237 205 269 275 239 217 205 12 308 179 202 221 217 238 31 209 223 187 180 231 281 190 233 249 231 222 226 113 99 128 126 114 123 106 65 42 3
287 272 251 245 251 263 314 328 224 264 293 276 261 201 147 171 237 217 190 53 325 66 281 290 293 153 171 276 278 271 257 241 253 271 253 138 155 150 139 124 101 69 54 28 21
280 267 156 251 245 236 118 247 85 59 317 1 355 316 128 259 255 196 24 152 269 331 247 287 162 204 191 206 231 223 252 257 265 256 238 169 96 90 131 119 103 89 66 39 28
282 267 155 247 243 252 127 0 332 22 321 329 118 269 77 356 340 344 182 43 1 311 297 295 319 188 212 210 219 256 251 233 245 251 273 91 78 64 109 111 103 99 86 65 47
271 263 71 216 262 257 81 85 4 347 347 340 347 297 147 240 128 115 289 36 338 15 7 347 242 151 142 185 235 242 243 271 269 262 273 178 137 136 107 104 112 108 96 81 68
285 245 156 239 314 346 152 166 141 17 337 313 336 296 251 221 186 201 125 83 42 36 335 311 293 360 351 331 303 212 240 242 265 276 276 68 137 141 129 121 125 113 104 93 80
267 5 7 24 66 35 350 14 246 171 221 294 203 278 274 261 257 224 176 134 228 74 298 299 296 302 213 264 319 325 210 234 246 274 336 137 143 143 141 149 135 122 112 100 88
315 348 155 56 55 279 147 55 63 122 326 68 262 269 293 292 49 32 311 187 205 168 255 296 294 306 299 268 267 313 355 17 245 262 113 119 136 140 139 137 142 136 124 111 99
8 343 300 132 209 258 58 86 83 110 21 5 356 281 240 22 359 337 242 5 54 1 260 239 286 274 266 278 266 245 250 254 232 262 160 150 154 145 145 143 141 134 126 114 106